This is the latest recevied weather packets stored in our database for station/object N7CEE-2. If no packets are shown the sender has not sent any weather packets the latest 10 day(s).
| Time | Temp. | Humidity | Pressure | Rain* | Wind** | Luminosity | Snow |
|---|---|---|---|---|---|---|---|
| 1777646345 | 21.67° C | 43% | 1014.3 hPa | 0 mm | - | 238 W/m² | - |
| 1777646042 | 21.67° C | 43% | 1014.5 hPa | 0 mm | - | 216 W/m² | - |
| 1777645738 | 21.11° C | 43% | 1014.3 hPa | 0 mm | - | 199 W/m² | - |
| 1777645435 | 21.11° C | 44% | 1014.4 hPa | 0 mm | - | 186 W/m² | - |
| 1777645131 | 21.67° C | 43% | 1014.3 hPa | 0 mm | - | 163 W/m² | - |
| 1777644827 | 21.11° C | 43% | 1014.1 hPa | 0 mm | - | 147 W/m² | - |
| 1777644526 | 21.11° C | 44% | 1014.3 hPa | 0 mm | - | 132 W/m² | - |
| 1777644221 | 20.56° C | 44% | 1013.9 hPa | 0 mm | - | 117 W/m² | - |
| 1777643918 | 21.11° C | 43% | 1014 hPa | 0 mm | - | 104 W/m² | - |
| 1777643616 | 20.56° C | 43% | 1014.1 hPa | 0 mm | - | 93 W/m² | - |
| 1777643313 | 20.56° C | 43% | 1013.9 hPa | 0 mm | - | 80 W/m² | - |
| 1777643009 | 20° C | 44% | 1013.9 hPa | 0 mm | - | 69 W/m² | - |
| 1777642705 | 19.44° C | 46% | 1013.7 hPa | 0 mm | - | 55 W/m² | - |
| 1777642403 | 18.89° C | 46% | 1013.6 hPa | 0 mm | - | 48 W/m² | - |
| 1777642099 | 18.33° C | 47% | 1013.7 hPa | 0 mm | - | 42 W/m² | - |
| 1777641795 | 18.33° C | 48% | 1013.6 hPa | 0 mm | - | 37 W/m² | - |
| 1777641490 | 18.33° C | 48% | 1013.6 hPa | 0 mm | - | 33 W/m² | - |
| 1777641186 | 17.78° C | 48% | 1013.5 hPa | 0 mm | - | 29 W/m² | - |
| 1777640882 | 17.78° C | 48% | 1013.4 hPa | 0 mm | - | 24 W/m² | - |
| 1777640579 | 17.22° C | 49% | 1013.3 hPa | 0 mm | - | 20 W/m² | - |
| 1777640276 | 17.22° C | 49% | 1013.1 hPa | 0 mm | - | 16 W/m² | - |
| 1777639972 | 17.22° C | 50% | 1013.1 hPa | 0 mm | - | 12 W/m² | - |
| 1777639669 | 17.22° C | 48% | 1012.9 hPa | 0 mm | - | 8 W/m² | - |
| 1777639367 | 17.22° C | 49% | 1013 hPa | 0 mm | - | 5 W/m² | - |
| 1777639061 | 17.22° C | 48% | 1013 hPa | 0 mm | - | 3 W/m² | - |
* Rain latest hour (hover to see other rain measurements)
** Current wind speed in m/s (hover to see current wind gust speed)